Total_Precipitation_Accumulation
2.02 2.02 2.04 1.95 1.96 1.99 2.15 2.28 2.31 2.08 1.83 1.55 1.39 1.24 1.29 1.30 1.50 1.39 1.21 1.27 1.18 1.10 1.06 1.06 1.17 1.35 1.58 1.69 1.82 1.95 2.12 2.24 2.28 2.15 2.05 2.04 2.12 2.25
1.78 1.82 1.86 1.83 1.92 1.94 2.04 2.16 2.16 2.11 1.96 1.66 1.46 1.36 1.39 1.28 1.42 1.31 1.33 1.50 1.32 1.16 1.07 1.04 1.07 1.15 1.22 1.25 1.26 1.26 1.31 1.36 1.44 1.57 1.62 1.65 1.69 1.83
1.44 1.50 1.56 1.55 1.71 1.76 1.88 1.98 2.02 2.01 1.81 1.57 1.43 1.44 1.46 1.45 1.43 1.33 1.33 1.35 1.29 1.19 1.05 0.97 0.99 1.04 1.09 1.14 1.13 1.09 1.09 1.03 1.07 1.20 1.33 1.42 1.41 1.44
1.30 1.35 1.34 1.35 1.47 1.56 1.65 1.73 1.88 1.93 1.84 1.66 1.49 1.40 1.29 1.35 1.51 1.53 1.51 1.41 1.39 1.44 1.33 1.18 1.11 1.06 1.02 1.07 1.14 1.10 1.06 0.99 0.91 0.99 1.12 1.24 1.32 1.37
1.01 1.04 1.08 1.18 1.35 1.40 1.41 1.52 1.69 1.77 1.86 1.73 1.59 1.47 1.31 1.28 1.49 1.48 1.52 1.69 1.59 1.65 1.76 1.58 1.35 1.19 1.07 1.08 1.15 1.13 1.05 1.01 0.89 0.90 1.07 1.18 1.24 1.28
0.90 0.88 0.88 0.93 1.07 1.22 1.30 1.47 1.65 1.80 1.87 1.79 1.71 1.64 1.53 1.41 1.52 1.65 1.71 1.78 1.79 1.60 1.61 1.61 1.58 1.46 1.26 1.13 1.18 1.23 1.20 1.14 1.10 1.03 1.08 1.13 1.19 1.22
0.82 0.85 0.86 0.86 0.89 0.96 0.96 1.16 1.38 1.62 1.74 1.80 1.78 1.77 1.68 1.59 1.51 1.68 1.78 1.90 1.98 1.93 1.79 1.61 1.59 1.44 1.33 1.26 1.23 1.26 1.30 1.29 1.25 1.17 1.13 1.14 1.13 1.19
0.87 0.86 0.83 0.81 0.91 0.90 0.87 0.90 1.05 1.22 1.39 1.51 1.57 1.60 1.63 1.70 1.80 1.82 1.82 1.87 1.91 1.90 1.77 1.77 1.71 1.61 1.44 1.26 1.28 1.29 1.31 1.33 1.30 1.22 1.15 1.09 1.08 1.14
0.88 0.96 0.99 0.88 0.92 0.95 1.00 0.93 0.86 0.89 1.06 1.26 1.36 1.39 1.49 1.57 1.80 1.83 1.84 1.87 1.74 1.76 1.63 1.69 1.62 1.50 1.42 1.38 1.40 1.32 1.31 1.28 1.30 1.26 1.23 1.17 1.12 1.17
0.80 0.89 1.12 1.14 1.03 1.03 1.09 1.13 1.00 0.84 0.85 0.92 1.10 1.26 1.34 1.52 1.86 2.07 2.01 1.78 1.68 1.70 1.59 1.59 1.52 1.40 1.33 1.30 1.37 1.28 1.26 1.22 1.19 1.21 1.20 1.19 1.15 1.16
0.70 0.82 0.96 1.08 1.06 1.07 1.02 1.08 1.09 0.96 0.92 0.95 0.93 1.04 1.22 1.41 1.71 1.99 2.09 2.01 1.79 1.69 1.54 1.44 1.42 1.39 1.42 1.37 1.32 1.34 1.24 1.22 1.21 1.21 1.25 1.25 1.23 1.29
0.57 0.75 0.95 0.92 0.92 0.99 1.01 1.09 1.19 1.02 0.94 1.03 1.00 1.03 1.08 1.33 1.71 1.90 2.03 2.03 1.88 1.78 1.61 1.49 1.46 1.47 1.64 1.58 1.38 1.32 1.27 1.29 1.29 1.25 1.25 1.32 1.40 1.39
0.56 0.66 0.72 0.74 0.75 0.84 0.93 0.98 1.13 1.03 1.05 1.20 1.22 1.17 1.23 1.28 1.42 1.60 1.84 1.98 1.89 1.71 1.57 1.66 1.70 1.62 1.57 1.55 1.50 1.40 1.31 1.24 1.22 1.22 1.23 1.26 1.34 1.34
0.60 0.63 0.61 0.63 0.67 0.73 0.74 0.80 0.97 1.08 1.15 1.30 1.35 1.30 1.24 1.27 1.31 1.36 1.50 1.66 1.67 1.59 1.48 1.43 1.50 1.47 1.39 1.24 1.21 1.27 1.29 1.26 1.20 1.20 1.21 1.34 1.31 1.35
0.57 0.64 0.66 0.68 0.70 0.68 0.69 0.75 0.89 1.07 1.25 1.29 1.22 1.15 1.18 1.23 1.24 1.36 1.44 1.51 1.56 1.53 1.38 1.21 1.21 1.27 1.25 1.15 1.03 1.04 1.15 1.20 1.15 1.10 1.11 1.16 1.18 1.22
0.60 0.65 0.68 0.70 0.68 0.65 0.72 0.83 0.95 1.15 1.24 1.18 1.14 1.03 1.06 1.21 1.27 1.28 1.32 1.32 1.37 1.41 1.28 1.17 1.14 1.15 1.18 1.11 1.04 0.98 0.96 1.02 1.07 1.10 1.10 1.08 1.07 1.09
0.61 0.67 0.71 0.78 0.80 0.84 0.93 1.01 1.00 1.03 1.10 1.02 1.07 1.02 0.99 1.09 1.15 1.16 1.19 1.14 1.10 1.08 1.10 1.06 1.05 1.04 1.04 1.08 1.10 1.03 1.00 0.94 0.93 1.04 1.13 1.11 1.04 1.04
0.67 0.72 0.81 0.89 0.94 1.00 1.05 1.03 1.00 0.99 1.02 1.02 1.04 1.02 0.96 0.97 1.01 1.04 1.10 1.15 1.15 1.07 0.98 0.94 0.91 0.96 1.01 1.07 1.06 0.99 1.01 1.02 1.01 1.04 1.06 1.04 0.95 0.92
0.65 0.75 0.96 1.00 0.96 0.98 1.02 1.02 0.92 0.85 0.86 0.88 0.88 0.88 0.87 0.88 0.92 0.95 1.00 1.08 1.11 1.05 1.02 1.01 1.01 1.03 1.02 0.91 0.81 0.80 0.94 1.00 1.00 1.01 1.01 0.98 0.90 0.85
0.52 0.64 0.81 0.86 0.89 0.93 0.90 0.86 0.80 0.76 0.77 0.76 0.74 0.74 0.76 0.81 0.85 0.88 0.89 0.90 0.96 0.98 0.98 0.99 1.00 1.00 1.04 1.02 0.92 0.77 0.79 0.92 0.97 0.97 0.93 0.94 0.95 1.06
0.49 0.58 0.67 0.74 0.76 0.77 0.77 0.75 0.74 0.75 0.74 0.73 0.73 0.75 0.77 0.79 0.79 0.78 0.81 0.86 0.87 0.87 0.90 0.89 0.90 1.02 1.05 1.11 1.07 0.85 0.74 0.86 0.96 0.95 0.99 1.06 1.03 0.95
0.48 0.50 0.56 0.62 0.66 0.69 0.70 0.71 0.72 0.75 0.74 0.72 0.71 0.73 0.77 0.81 0.80 0.80 0.80 0.81 0.81 0.83 0.84 0.84 0.89 1.00 1.08 1.14 1.05 0.89 0.82 0.82 0.92 1.07 1.07 1.09 1.04 0.97
0.51 0.50 0.51 0.56 0.63 0.69 0.74 0.75 0.74 0.77 0.79 0.76 0.76 0.77 0.80 0.82 0.82 0.82 0.82 0.82 0.82 0.84 0.87 0.91 0.97 1.07 1.10 1.08 1.06 0.99 0.92 0.90 0.91 0.96 0.96 1.04 1.04 0.98